Time,TemperatureF,DewpointF,PressureIn,WindDirection,WindDirectionDegrees,WindSpeedMPH,WindSpeedGustMPH,Humidity,HourlyPrecipIn,Conditions,Clouds,dailyrainin,SolarRadiationWatts/m^2,SoftwareType,DateUTC
2013-07-30 00:02:00,80.0,45.0,-100.00,North,351,10.0,20.0,29,0.00,,,0.00,106.000000,,2013-07-30 04:02:00,
2013-07-30 00:33:00,76.0,44.0,-100.00,NNW,344,9.0,19.0,32,0.00,,,0.00,7.000000,,2013-07-30 04:33:00,
2013-07-30 00:43:00,76.0,44.0,-100.00,NNW,344,9.0,19.0,32,0.00,,,0.00,7.000000,,2013-07-30 04:43:00,
2013-07-30 00:53:00,76.0,44.0,-100.00,NNW,344,9.0,19.0,32,0.00,,,0.00,7.000000,,2013-07-30 04:53:00,
2013-07-30 01:02:00,76.0,44.0,-100.00,NNW,344,9.0,19.0,32,0.00,,,0.00,7.000000,,2013-07-30 05:02:00,
2013-07-30 01:45:00,72.0,43.0,-100.00,NNW,342,6.0,15.0,35,0.00,,,0.00,1.000000,,2013-07-30 05:45:00,
2013-07-30 01:52:00,72.0,43.0,-100.00,NNW,342,6.0,15.0,35,0.00,,,0.00,1.000000,,2013-07-30 05:52:00,
2013-07-30 02:02:00,72.0,43.0,-100.00,NNW,342,6.0,15.0,35,0.00,,,0.00,1.000000,,2013-07-30 06:02:00,
2013-07-30 02:33:00,71.0,43.0,-100.00,NNW,340,7.0,12.0,36,0.00,,,0.00,1.000000,,2013-07-30 06:33:00,
2013-07-30 02:43:00,71.0,43.0,-100.00,NNW,340,7.0,12.0,36,0.00,,,0.00,1.000000,,2013-07-30 06:43:00,
2013-07-30 02:53:00,71.0,43.0,-100.00,NNW,340,7.0,12.0,36,0.00,,,0.00,1.000000,,2013-07-30 06:53:00,
2013-07-30 03:02:00,71.0,43.0,-100.00,NNW,340,7.0,12.0,36,0.00,,,0.00,1.000000,,2013-07-30 07:02:00,
2013-07-30 03:33:00,69.0,42.0,-100.00,WNW,282,3.0,12.0,38,0.00,,,0.00,1.000000,,2013-07-30 07:33:00,
2013-07-30 03:43:00,69.0,42.0,-100.00,WNW,282,3.0,12.0,38,0.00,,,0.00,1.000000,,2013-07-30 07:43:00,
2013-07-30 03:53:00,69.0,42.0,-100.00,WNW,282,3.0,12.0,38,0.00,,,0.00,1.000000,,2013-07-30 07:53:00,
2013-07-30 04:02:00,69.0,42.0,-100.00,WNW,282,3.0,12.0,38,0.00,,,0.00,1.000000,,2013-07-30 08:02:00,
2013-07-30 04:33:00,66.0,44.0,-100.00,WSW,249,3.0,10.0,45,0.00,,,0.00,1.000000,,2013-07-30 08:33:00,
2013-07-30 04:43:00,66.0,44.0,-100.00,WSW,249,3.0,10.0,45,0.00,,,0.00,1.000000,,2013-07-30 08:43:00,
2013-07-30 04:53:00,66.0,44.0,-100.00,WSW,249,3.0,10.0,45,0.00,,,0.00,1.000000,,2013-07-30 08:53:00,
2013-07-30 05:02:00,66.0,44.0,-100.00,WSW,249,3.0,10.0,45,0.00,,,0.00,1.000000,,2013-07-30 09:02:00,
2013-07-30 05:43:00,64.0,46.0,-100.00,WSW,245,5.0,8.0,52,0.00,,,0.00,1.000000,,2013-07-30 09:43:00,
2013-07-30 05:53:00,64.0,46.0,-100.00,WSW,245,5.0,8.0,52,0.00,,,0.00,1.000000,,2013-07-30 09:53:00,
2013-07-30 06:02:00,64.0,46.0,-100.00,WSW,245,5.0,8.0,52,0.00,,,0.00,1.000000,,2013-07-30 10:02:00,
2013-07-30 06:44:00,63.0,48.0,-100.00,SW,217,5.0,8.0,57,0.00,,,0.00,1.000000,,2013-07-30 10:44:00,
2013-07-30 06:52:00,63.0,48.0,-100.00,SW,217,5.0,8.0,57,0.00,,,0.00,1.000000,,2013-07-30 10:52:00,
2013-07-30 07:02:00,63.0,48.0,-100.00,SW,217,5.0,8.0,57,0.00,,,0.00,1.000000,,2013-07-30 11:02:00,
2013-07-30 07:33:00,62.0,47.0,-100.00,WSW,258,4.0,10.0,58,0.00,,,0.00,1.000000,,2013-07-30 11:33:00,
2013-07-30 07:43:00,62.0,47.0,-100.00,WSW,258,4.0,10.0,58,0.00,,,0.00,1.000000,,2013-07-30 11:43:00,
2013-07-30 07:53:00,62.0,47.0,-100.00,WSW,258,4.0,10.0,58,0.00,,,0.00,1.000000,,2013-07-30 11:53:00,
2013-07-30 08:33:00,60.0,46.0,-100.00,SSW,207,3.0,10.0,59,0.00,,,0.00,1.000000,,2013-07-30 12:33:00,
2013-07-30 08:42:00,60.0,46.0,-100.00,SSW,207,3.0,10.0,59,0.00,,,0.00,1.000000,,2013-07-30 12:42:00,
2013-07-30 08:53:00,60.0,46.0,-100.00,SSW,207,3.0,10.0,59,0.00,,,0.00,1.000000,,2013-07-30 12:53:00,
2013-07-30 09:01:00,60.0,46.0,-100.00,SSW,207,3.0,10.0,59,0.00,,,0.00,1.000000,,2013-07-30 13:01:00,
2013-07-30 09:33:00,58.0,45.0,-100.00,SSW,193,4.0,10.0,62,0.00,,,-99.99,4.000000,,2013-07-30 13:33:00,
2013-07-30 09:43:00,58.0,45.0,-100.00,SSW,193,4.0,10.0,62,0.00,,,-99.99,4.000000,,2013-07-30 13:43:00,
2013-07-30 09:52:00,58.0,45.0,-100.00,SSW,193,4.0,10.0,62,0.00,,,-99.99,4.000000,,2013-07-30 13:52:00,
2013-07-30 10:02:00,58.0,45.0,-100.00,SSW,193,4.0,10.0,62,0.00,,,-99.99,4.000000,,2013-07-30 14:02:00,
2013-07-30 10:43:00,60.0,43.0,-100.00,SSW,208,7.0,10.0,54,0.00,,,0.00,90.000000,,2013-07-30 14:43:00,
2013-07-30 10:53:00,60.0,43.0,-100.00,SSW,208,7.0,10.0,54,0.00,,,0.00,90.000000,,2013-07-30 14:53:00,
2013-07-30 11:02:00,60.0,43.0,-100.00,SSW,208,7.0,10.0,54,0.00,,,0.00,90.000000,,2013-07-30 15:02:00,
2013-07-30 11:43:00,62.0,45.0,-100.00,SSW,202,7.0,10.0,54,0.00,,,0.00,193.000000,,2013-07-30 15:43:00,
2013-07-30 11:53:00,62.0,45.0,-100.00,SSW,202,7.0,10.0,54,0.00,,,0.00,193.000000,,2013-07-30 15:53:00,
2013-07-30 12:02:00,62.0,45.0,-100.00,SSW,202,7.0,10.0,54,0.00,,,0.00,193.000000,,2013-07-30 16:02:00,
2013-07-30 12:44:00,68.0,49.0,-100.00,SW,217,4.0,10.0,50,0.00,,,0.00,338.000000,,2013-07-30 16:44:00,
2013-07-30 12:52:00,68.0,49.0,-100.00,SW,217,4.0,10.0,50,0.00,,,0.00,338.000000,,2013-07-30 16:52:00,
2013-07-30 13:02:00,68.0,49.0,-100.00,SW,217,4.0,10.0,50,0.00,,,0.00,338.000000,,2013-07-30 17:02:00,
2013-07-30 13:43:00,73.0,46.0,-100.00,SSW,211,5.0,8.0,38,0.00,,,0.00,516.000000,,2013-07-30 17:43:00,
2013-07-30 13:53:00,73.0,46.0,-100.00,SSW,211,5.0,8.0,38,0.00,,,0.00,516.000000,,2013-07-30 17:53:00,
2013-07-30 14:02:00,73.0,46.0,-100.00,SSW,211,5.0,8.0,38,0.00,,,0.00,516.000000,,2013-07-30 18:02:00,
2013-07-30 14:43:00,80.0,47.0,-100.00,WNW,302,3.0,9.0,31,0.00,,,0.00,670.000000,,2013-07-30 18:43:00,
2013-07-30 14:52:00,80.0,47.0,-100.00,WNW,302,3.0,9.0,31,0.00,,,0.00,670.000000,,2013-07-30 18:52:00,
2013-07-30 15:02:00,80.0,47.0,-100.00,WNW,302,3.0,9.0,31,0.00,,,0.00,670.000000,,2013-07-30 19:02:00,
2013-07-30 15:44:00,82.0,42.0,-100.00,North,2,4.0,9.0,24,0.00,,,0.00,815.000000,,2013-07-30 19:44:00,
2013-07-30 15:52:00,82.0,42.0,-100.00,North,2,4.0,9.0,24,0.00,,,0.00,815.000000,,2013-07-30 19:52:00,
2013-07-30 16:02:00,82.0,42.0,-100.00,North,2,4.0,9.0,24,0.00,,,0.00,815.000000,,2013-07-30 20:02:00,
2013-07-30 16:33:00,85.0,38.0,-100.00,NW,312,5.0,11.0,19,0.00,,,0.00,789.000000,,2013-07-30 20:33:00,
2013-07-30 16:43:00,85.0,38.0,-100.00,NW,312,5.0,11.0,19,0.00,,,0.00,789.000000,,2013-07-30 20:43:00,
2013-07-30 16:52:00,85.0,38.0,-100.00,NW,312,5.0,11.0,19,0.00,,,0.00,789.000000,,2013-07-30 20:52:00,
2013-07-30 17:02:00,85.0,38.0,-100.00,NW,312,5.0,11.0,19,0.00,,,0.00,789.000000,,2013-07-30 21:02:00,
2013-07-30 17:32:00,88.0,33.0,-100.00,NNW,341,3.0,10.0,14,0.00,,,0.00,841.000000,,2013-07-30 21:32:00,
2013-07-30 17:42:00,88.0,33.0,-100.00,NNW,341,3.0,10.0,14,0.00,,,0.00,841.000000,,2013-07-30 21:42:00,
2013-07-30 17:53:00,88.0,33.0,-100.00,NNW,341,3.0,10.0,14,0.00,,,0.00,841.000000,,2013-07-30 21:53:00,
2013-07-30 18:01:00,88.0,33.0,-100.00,NNW,341,3.0,10.0,14,0.00,,,0.00,841.000000,,2013-07-30 22:01:00,
2013-07-30 18:32:00,90.0,33.0,-100.00,SE,133,5.0,10.0,13,0.00,,,0.00,847.000000,,2013-07-30 22:32:00,
2013-07-30 18:43:00,90.0,33.0,-100.00,SE,133,5.0,10.0,13,0.00,,,0.00,847.000000,,2013-07-30 22:43:00,
2013-07-30 18:52:00,90.0,33.0,-100.00,SE,133,5.0,10.0,13,0.00,,,0.00,847.000000,,2013-07-30 22:52:00,
2013-07-30 19:02:00,90.0,33.0,-100.00,SE,133,5.0,10.0,13,0.00,,,0.00,847.000000,,2013-07-30 23:02:00,
2013-07-30 19:32:00,93.0,35.0,-100.00,NE,43,5.0,12.0,13,0.00,,,0.00,730.000000,,2013-07-30 23:32:00,
2013-07-30 19:42:00,93.0,35.0,-100.00,NE,43,5.0,12.0,13,0.00,,,0.00,730.000000,,2013-07-30 23:42:00,
2013-07-30 19:53:00,93.0,35.0,-100.00,NE,43,5.0,12.0,13,0.00,,,0.00,730.000000,,2013-07-30 23:53:00,
2013-07-30 20:02:00,93.0,35.0,-100.00,NE,43,5.0,12.0,13,0.00,,,0.00,730.000000,,2013-07-31 00:02:00,
2013-07-30 20:32:00,91.0,29.0,-100.00,NW,325,6.0,14.0,11,0.00,,,0.00,514.000000,,2013-07-31 00:32:00,
2013-07-30 20:43:00,91.0,29.0,-100.00,NW,325,6.0,14.0,11,0.00,,,0.00,514.000000,,2013-07-31 00:43:00,
2013-07-30 20:53:00,91.0,29.0,-100.00,NW,325,6.0,14.0,11,0.00,,,0.00,514.000000,,2013-07-31 00:53:00,
2013-07-30 21:02:00,91.0,29.0,-100.00,NW,325,6.0,14.0,11,0.00,,,0.00,514.000000,,2013-07-31 01:02:00,
2013-07-30 21:32:00,91.0,35.0,-100.00,North,10,11.0,18.0,14,0.00,,,0.00,388.000000,,2013-07-31 01:32:00,
2013-07-30 21:43:00,91.0,35.0,-100.00,North,10,11.0,18.0,14,0.00,,,0.00,388.000000,,2013-07-31 01:43:00,
2013-07-30 21:52:00,91.0,35.0,-100.00,North,10,11.0,18.0,14,0.00,,,0.00,388.000000,,2013-07-31 01:52:00,
2013-07-30 22:02:00,91.0,35.0,-100.00,North,10,11.0,18.0,14,0.00,,,0.00,388.000000,,2013-07-31 02:02:00,
2013-07-30 22:32:00,89.0,37.0,-100.00,NE,40,9.0,17.0,16,0.00,,,0.00,261.000000,,2013-07-31 02:32:00,
2013-07-30 22:43:00,89.0,37.0,-100.00,NE,40,9.0,17.0,16,0.00,,,0.00,261.000000,,2013-07-31 02:43:00,
2013-07-30 22:52:00,89.0,37.0,-100.00,NE,40,9.0,17.0,16,0.00,,,0.00,261.000000,,2013-07-31 02:52:00,
2013-07-30 23:02:00,89.0,37.0,-100.00,NE,40,9.0,17.0,16,0.00,,,0.00,261.000000,,2013-07-31 03:02:00,
2013-07-30 23:32:00,85.0,39.0,-100.00,North,10,7.0,17.0,20,0.00,,,0.00,99.000000,,2013-07-31 03:32:00,
2013-07-30 23:42:00,85.0,39.0,-100.00,North,10,7.0,17.0,20,0.00,,,0.00,99.000000,,2013-07-31 03:42:00,
2013-07-30 23:52:00,85.0,39.0,-100.00,North,10,7.0,17.0,20,0.00,,,0.00,99.000000,,2013-07-31 03:52:00,